| time (UTC) | temp F | wind direction | speed knots | gust knots | rain 1hr in | rain 24hr in | rain mn in | humidity % | barometer mb |
| 20260902161531 | 84 | 166 | 1.7 | 7.0 | 0.00 | 0.00 | 0.00 | 51 | 1007.6 |
| 20260902160029 | 84 | 128 | 2.6 | 6.1 | 0.00 | 0.00 | 0.00 | 49 | 1007.6 |
| 20260902154532 | 82 | 159 | 2.6 | 5.2 | 0.00 | 0.00 | 0.00 | 51 | 1007.7 |
| 20260902153023 | 81 | 154 | 0.9 | 2.6 | 0.00 | 0.00 | 0.00 | 54 | 1007.9 |
| 20260902151518 | 80 | 124 | 0.0 | 1.7 | 0.00 | 0.00 | 0.00 | 61 | 1008.0 |
| 20260902150014 | 76 | 237 | 0.0 | 0.0 | 0.00 | 0.00 | 0.00 | 65 | 1008.1 |
| 20260902144511 | 74 | 249 | 0.0 | 1.7 | 0.00 | 0.00 | 0.00 | 68 | 1008.2 |
| 20260902143007 | 73 | 226 | 0.9 | 2.6 | 0.00 | 0.00 | 0.00 | 70 | 1008.2 |
| 20260902141515 | 70 | 226 | 0.9 | 3.5 | 0.00 | 0.00 | 0.00 | 74 | 1008.4 |
| 20260902140006 | 69 | 200 | 2.6 | 3.5 | 0.00 | 0.00 | 0.00 | 76 | 1008.4 |
| 20260902134506 | 68 | 215 | 1.7 | 2.6 | 0.00 | 0.00 | 0.00 | 77 | 1008.4 |
| 20260902133005 | 68 | 222 | 1.7 | 2.6 | 0.00 | 0.00 | 0.00 | 76 | 1008.4 |
| 20260902131504 | 66 | 218 | 0.9 | 2.6 | 0.00 | 0.00 | 0.00 | 78 | 1008.4 |
| 20260902130003 | 65 | 240 | 0.9 | 2.6 | 0.00 | 0.00 | 0.00 | 79 | 1008.4 |
| 20260902124509 | 65 | 256 | 1.7 | 4.3 | 0.00 | 0.00 | 0.00 | 79 | 1008.3 |
| 20260902123002 | 64 | 259 | 0.9 | 2.6 | 0.00 | 0.00 | 0.00 | 79 | 1008.3 |
| 20260902121501 | 64 | 184 | 1.7 | 3.5 | 0.00 | 0.00 | 0.00 | 79 | 1008.3 |
| 20260902120101 | 66 | 206 | 0.9 | 1.7 | 0.00 | 0.00 | 0.00 | 76 | 1008.1 |
| 20260902114600 | 66 | 287 | 0.9 | 3.5 | 0.00 | 0.00 | 0.00 | 76 | 1008.0 |
| 20260902113059 | 65 | 275 | 0.9 | 2.6 | 0.00 | 0.00 | 0.00 | 77 | 1008.1 |
| 20260902111600 | 66 | 262 | 0.9 | 3.5 | 0.00 | 0.00 | 0.00 | 76 | 1007.9 |
| 20260902104559 | 65 | 221 | 1.7 | 5.2 | 0.00 | 0.00 | 0.00 | 78 | 1008.0 |
| 20260902103101 | 64 | 211 | 2.6 | 3.5 | 0.00 | 0.00 | 0.00 | 81 | 1008.1 |
| 20260902101559 | 64 | 210 | 1.7 | 2.6 | 0.00 | 0.00 | 0.00 | 80 | 1007.9 |
| 20260902100054 | 64 | 231 | 1.7 | 2.6 | 0.00 | 0.00 | 0.00 | 80 | 1007.8 |
| 20260902094552 | 65 | 221 | 1.7 | 2.6 | 0.00 | 0.00 | 0.00 | 78 | 1007.9 |
| 20260902093118 | 65 | 222 | 0.9 | 2.6 | 0.00 | 0.00 | 0.00 | 79 | 1008.0 |
| 20260902091554 | 65 | 201 | 1.7 | 3.5 | 0.00 | 0.00 | 0.00 | 79 | 1008.0 |
| 20260902090056 | 65 | 220 | 1.7 | 3.5 | 0.00 | 0.00 | 0.00 | 78 | 1008.0 |
| 20260902084555 | 65 | 214 | 2.6 | 3.5 | 0.00 | 0.00 | 0.00 | 78 | 1008.0 |
| 20260902083051 | 65 | 201 | 2.6 | 4.3 | 0.00 | 0.00 | 0.00 | 77 | 1007.8 |
| 20260902081600 | 65 | 197 | 1.7 | 2.6 | 0.00 | 0.00 | 0.00 | 77 | 1007.5 |
| 20260902080043 | 66 | 220 | 1.7 | 2.6 | 0.00 | 0.00 | 0.00 | 76 | 1007.6 |
| 20260902074538 | 67 | 217 | 1.7 | 3.5 | 0.00 | 0.00 | 0.00 | 74 | 1007.5 |
| 20260902073036 | 67 | 174 | 2.6 | 3.5 | 0.00 | 0.00 | 0.00 | 74 | 1007.5 |
| 20260902071536 | 68 | 207 | 1.7 | 3.5 | 0.00 | 0.00 | 0.00 | 71 | 1007.3 |
| 20260902070030 | 70 | 188 | 0.9 | 3.5 | 0.00 | 0.00 | 0.00 | 67 | 1007.5 |
| 20260902064529 | 70 | 257 | 0.9 | 3.5 | 0.00 | 0.00 | 0.00 | 67 | 1007.2 |
| 20260902063031 | 69 | 278 | 0.0 | 3.5 | 0.00 | 0.00 | 0.00 | 69 | 1007.4 |
| 20260902061540 | 70 | 265 | 0.9 | 2.6 | 0.00 | 0.00 | 0.00 | 69 | 1007.2 |
| 20260902060024 | 68 | 216 | 0.9 | 1.7 | 0.00 | 0.00 | 0.00 | 72 | 1007.4 |
| 20260902054520 | 70 | 225 | 2.6 | 3.5 | 0.00 | 0.00 | 0.00 | 69 | 1007.4 |
| 20260902053020 | 72 | 247 | 1.7 | 2.6 | 0.00 | 0.00 | 0.00 | 63 | 1007.2 |
| 20260902051517 | 72 | 234 | 1.7 | 3.5 | 0.00 | 0.00 | 0.00 | 66 | 1007.2 |
| 20260902050013 | 72 | 195 | 1.7 | 2.6 | 0.00 | 0.00 | 0.00 | 63 | 1007.1 |
| 20260902044512 | 74 | 220 | 1.7 | 2.6 | 0.00 | 0.00 | 0.00 | 60 | 1007.1 |
| 20260902043011 | 76 | 217 | 0.9 | 2.6 | 0.00 | 0.00 | 0.00 | 57 | 1007.2 |
| 20260902041513 | 77 | 229 | 2.6 | 4.3 | 0.00 | 0.00 | 0.00 | 55 | 1007.4 |
| 20260902040013 | 76 | 216 | 2.6 | 5.2 | 0.00 | 0.00 | 0.00 | 57 | 1007.5 |
| 20260902034511 | 76 | 202 | 2.6 | 3.5 | 0.00 | 0.00 | 0.00 | 57 | 1007.6 |
| 20260902033011 | 77 | 207 | 2.6 | 6.1 | 0.00 | 0.00 | 0.00 | 56 | 1007.3 |
| 20260902031509 | 77 | 218 | 2.6 | 5.2 | 0.00 | 0.00 | 0.00 | 56 | 1007.1 |
| 20260902030009 | 78 | 202 | 2.6 | 3.5 | 0.00 | 0.00 | 0.00 | 55 | 1006.9 |
| 20260902024518 | 79 | 217 | 3.5 | 7.0 | 0.00 | 0.00 | 0.00 | 51 | 1006.7 |
| 20260902023008 | 78 | 236 | 2.6 | 4.3 | 0.00 | 0.00 | 0.00 | 54 | 1006.6 |
| 20260902021508 | 79 | 211 | 3.5 | 5.2 | 0.00 | 0.00 | 0.00 | 52 | 1006.4 |
| 20260902020007 | 80 | 208 | 2.6 | 3.5 | 0.00 | 0.00 | 0.00 | 50 | 1006.1 |
| 20260902014507 | 82 | 217 | 1.7 | 2.6 | 0.00 | 0.00 | 0.00 | 48 | 1006.1 |
| 20260902013005 | 83 | 202 | 0.9 | 1.7 | 0.00 | 0.00 | 0.00 | 45 | 1006.1 |
| 20260902011505 | 84 | 198 | 0.0 | 0.0 | 0.00 | 0.00 | 0.00 | 44 | 1006.1 |
| 20260902010012 | 86 | 193 | 0.0 | 0.9 | 0.00 | 0.00 | 0.00 | 41 | 1006.1 |
| 20260902004504 | 88 | 200 | 0.0 | 3.5 | 0.00 | 0.00 | 0.00 | 38 | 1006.2 |
| 20260902003003 | 89 | 161 | 2.6 | 6.1 | 0.00 | 0.00 | 0.00 | 38 | 1006.2 |
| 20260902001503 | 90 | 188 | 5.2 | 8.7 | 0.00 | 0.00 | 0.00 | 36 | 1006.1 |
| 20260902000003 | 90 | 150 | 5.2 | 9.6 | 0.00 | 0.00 | 0.00 | 37 | 1006.0 |
| 20260901234502 | 90 | 152 | 6.1 | 9.6 | 0.00 | 0.00 | 0.00 | 36 | 1005.9 |
| 20260901233001 | 91 | 180 | 7.8 | 11.3 | 0.00 | 0.00 | 0.00 | 35 | 1006.0 |
| 20260901231601 | 92 | 162 | 7.8 | 13.9 | 0.00 | 0.00 | 0.00 | 34 | 1006.0 |
| 20260901230059 | 92 | 161 | 5.2 | 10.4 | 0.00 | 0.00 | 0.00 | 38 | 1006.1 |
| 20260901224558 | 94 | 135 | 5.2 | 9.6 | 0.00 | 0.00 | 0.00 | 33 | 1006.2 |
| 20260901223058 | 93 | 162 | 7.0 | 12.2 | 0.00 | 0.00 | 0.00 | 33 | 1006.3 |
| 20260901221557 | 94 | 136 | 7.0 | 10.4 | 0.00 | 0.00 | 0.00 | 34 | 1006.3 |
| 20260901220055 | 95 | 157 | 7.0 | 10.4 | 0.00 | 0.00 | 0.00 | 31 | 1006.5 |
| 20260901214552 | 95 | 166 | 4.3 | 7.8 | 0.00 | 0.00 | 0.00 | 34 | 1006.8 |
| 20260901213109 | 93 | 181 | 5.2 | 7.8 | 0.00 | 0.00 | 0.00 | 35 | 1006.9 |
| 20260901211547 | 92 | 210 | 6.1 | 11.3 | 0.00 | 0.00 | 0.00 | 34 | 1007.3 |
| 20260901210045 | 93 | 215 | 8.7 | 15.6 | 0.00 | 0.00 | 0.00 | 32 | 1007.4 |
| 20260901204547 | 91 | 129 | 4.3 | 0.0 | 0.00 | 0.00 | 0.00 | 41 | 1007.8 |
| 20260901203041 | 90 | 158 | 4.3 | 7.0 | 0.00 | 0.00 | 0.00 | 45 | 1008.1 |
| 20260901201540 | 90 | 146 | 4.3 | 7.0 | 0.00 | 0.00 | 0.00 | 43 | 1008.2 |
| 20260901200040 | 92 | 135 | 5.2 | 9.6 | 0.00 | 0.00 | 0.00 | 39 | 1008.3 |
| 20260901194536 | 92 | 161 | 6.1 | 9.6 | 0.00 | 0.00 | 0.00 | 38 | 1008.3 |
| 20260901193033 | 91 | 101 | 7.0 | 10.4 | 0.00 | 0.00 | 0.00 | 42 | 1008.6 |
| 20260901191532 | 91 | 100 | 4.3 | 7.8 | 0.00 | 0.00 | 0.00 | 42 | 1008.9 |
| 20260901190033 | 91 | 86 | 4.3 | 9.6 | 0.00 | 0.00 | 0.00 | 43 | 1009.1 |
| 20260901184540 | 91 | 134 | 5.2 | 11.3 | 0.00 | 0.00 | 0.00 | 42 | 1009.1 |
| 20260901183030 | 90 | 147 | 5.2 | 11.3 | 0.00 | 0.00 | 0.00 | 43 | 1009.3 |
| 20260901181532 | 90 | 139 | 5.2 | 8.7 | 0.00 | 0.00 | 0.00 | 43 | 1009.9 |
| 20260901180024 | 89 | 167 | 3.5 | 7.8 | 0.00 | 0.00 | 0.00 | 45 | 1009.9 |
| 20260901174521 | 88 | 93 | 4.3 | 8.7 | 0.00 | 0.00 | 0.00 | 44 | 1010.1 |
| 20260901173018 | 87 | 77 | 6.1 | 9.6 | 0.00 | 0.00 | 0.00 | 48 | 1010.0 |
| 20260901171516 | 87 | 74 | 5.2 | 8.7 | 0.00 | 0.00 | 0.00 | 49 | 1010.2 |
| 20260901170019 | 86 | 108 | 0.9 | 7.8 | 0.00 | 0.00 | 0.00 | 48 | 1010.5 |
| 20260901164515 | 85 | 172 | 1.7 | 6.1 | 0.00 | 0.00 | 0.00 | 50 | 1010.8 |
| 20260901163013 | 84 | 87 | 2.6 | 6.1 | 0.00 | 0.00 | 0.00 | 52 | 1010.8 |